Regional Weather Roundup
Issued by NWS

Home | Current Version | Previous Version | Text Only | Print | Product List | Glossary On
Versions: 1 2 3 4 5 6 7 8 9 10 11 12 13 14 15 16 17 18 19 20 21 22 23 24 25 26 27 28 29 30 31 32 33 34 35 36 37 38 39 40 41 42 43 44 45 46 47 48 49 50
077
ASUS43 KMPX 252301
RWRMN
WEATHER ROUNDUP FOR MINNESOTA
NATIONAL WEATHER SERVICE TWIN CITIES/CHANHASSEN MN
600 PM CDT SUN SEP 25 2016


NOTE: "FAIR" INDICATES FEW OR NO CLOUDS BELOW 12,000 FEET WITH NO
SIGNIFICANT WEATHER AND/OR OBSTRUCTIONS TO VISIBILITY. N/A MEANS
CURRENT SKY AND/OR WEATHER CONDITIONS ARE NOT AVAILABLE.

MNZ060>063-068>070-260000-
   Twin Cities Metro

CITY           SKY/WX    TMP DP  RH WIND       PRES   REMARKS
TWIN CITIES    CLOUDY    60  52  74 W15G23    29.92R
ST PAUL        LGT RAIN  59  52  77 W20G33    29.92R
CRYSTAL        CLOUDY    60  51  72 W9        29.90R
BLAINE         CLOUDY    61  55  82 W13G20    29.91R
LAKEVILLE      CLOUDY    57  54  88 W12       29.94R
EDEN PRAIRIE   CLOUDY    62  50  64 W15G22    29.92R
LAKEVILLE      CLOUDY    57  54  88 W12       29.94R
SOUTH ST PAUL  CLOUDY    59  56  88 W15G21    29.92R
LAKE ELMO      CLOUDY    59  54  82 W15       29.91R
$$
MNZ001>005-007-008-013>017-022>024-027-028-260000-
   Northwest Minnesota

CITY           SKY/WX    TMP DP  RH WIND       PRES   REMARKS
BEMIDJI        DRIZZLE   51  49  94 W21G26    29.81R
HALLOCK        RAIN      52  50  93 W21G29    29.83R
ROSEAU         CLOUDY    52  48  87 W15G22    29.73R
WARROAD        DRIZZLE   52  48  87 W16G26    29.70S
THIEF RVR FALL LGT RAIN  51  48  89 W23G36    29.84R
CROOKSTON      LGT RAIN  50  50 100 NW24G33   29.88S
FOSSTON        RAIN      48  46  93 W26G37    29.86R
DETROIT LAKES  CLOUDY    54  46  76 NW22G38   29.93R
MOORHEAD       CLOUDY    61  43  51 NW23G32   29.94R
PARK RAPIDS    CLOUDY    53  46  77 NW23G36   29.87R
MAHNOMEN       CLOUDY    51  46  83 NW23G40   29.89R
$$
MNZ006-009>011-018-025>026-260000-
   North Central Minnesota

CITY           SKY/WX    TMP DP  RH WIND       PRES   REMARKS
BAUDETTE       CLOUDY    54  52  93 W13       29.68R FOG
FLAG ISLAND    LGT RAIN  54  54 100 W17       29.64S
INTL FALLS     CLOUDY    58  53  84 SW9G20    29.67S
WASKISH        CLOUDY    54  52  94 W18G29    29.73  FOG
BIG FORK       LGT RAIN  55  52  88 W9        29.74R
GRAND RAPIDS   CLOUDY    56  51  84 W10G16    29.80R
COOK           CLOUDY    57  52  82 SW9G17    29.73R
WALKER         CLOUDY    53  48  83 W16G30    29.82R
$$
MNZ012-019>021-037-260000-
   Northeast Minnesota

CITY           SKY/WX    TMP DP  RH WIND       PRES   REMARKS
DULUTH         MOCLDY    58  55  90 W15       29.78R
ELY            CLOUDY    57  52  82 SW7       29.72S
HIBBING        CLOUDY    55  53  93 W8        29.75R
EVELETH        MOCLDY    58  52  82 SW9       29.76S
DULUTH HARBOR  CLOUDY    63  55  77 SW7       29.78R
TWO HARBORS    CLOUDY    63  55  77 SW7       29.74S
SILVER BAY     CLOUDY    61  54  77 SW6       29.73S
GRAND MARAIS     N/A     61  60  97 CALM      29.71S
G MARAIS ARPRT PTCLDY    57  52  82 S12G22    29.73S
$$
MNZ029>031-032-039>041-046>048-054>057-064-260000-
   West Central Minnesota

CITY           SKY/WX    TMP DP  RH WIND       PRES   REMARKS
FERGUS FALLS   PTSUNNY   57  45  62 N12G24    29.96R
MORRIS         PTSUNNY   63  43  48 NW18G25   29.95R
ALEXANDRIA     CLOUDY    58  47  66 NW17      29.95R
ELBOW LAKE     CLOUDY    60  46  59 NW15G25   29.95R
GLENWOOD       PTSUNNY   57  46  67 W15G22    29.95S
BENSON         PTSUNNY   63  39  42 NW17G29   29.96S
MADISON          N/A     66  39  37 NW21G31   30.00R
WILLMAR        PTSUNNY   63  46  55 NW23G29   29.98R
$$
MNZ033>034-036-042>043-049>051-058-059-260000-
   Central Minnesota

CITY           SKY/WX    TMP DP  RH WIND       PRES   REMARKS
ST CLOUD       CLOUDY    59  50  72 NW16G28   29.91R
SAUK CENTRE    CLOUDY    58  45  63 W17G30    29.94R
PAYNESVILLE    CLOUDY    59  46  63 W12G25    29.95R
AITKIN         PTSUNNY   61  48  63 W13G21    29.82R
PINE RIVER     CLOUDY    55  48  76 W14G23    29.88R
BRAINERD       PTSUNNY   56  50  80 W22G32    29.87R
STAPLES        CLOUDY    55  46  71 W17G25    29.89R
LONG PRAIRIE   CLOUDY    55  45  67 W18G29    29.93R
LITTLE FALLS   PTSUNNY   55  48  76 W15G21    29.91R
BUFFALO        CLOUDY    60  49  66 W16G23    29.94R
MAPLE LAKE     CLOUDY    61  51  69 W9G20     29.93R
HUTCHINSON     CLOUDY    62  50  66 W15       29.97R
$$
MNZ037-044-045-052-053-260000-
   East Central Minnesota

CITY           SKY/WX    TMP DP  RH WIND       PRES   REMARKS
PRINCETON      RAIN      59  54  82 W14G28    29.90R
MORA           RAIN      55  50  82 W13G24    29.87R
CAMBRIDGE      LGT RAIN  61  50  67 W10G18    29.87R
MOOSE LAKE     CLOUDY    59  54  82 SW10      29.80S
HINCKLEY       CLOUDY    61  54  77 W8G23     29.84S
CLOQUET        LGT RAIN  57  54  88 SW7       29.79R
MCGREGOR       CLOUDY    59  52  77 W9G16     29.82R
$$
MNZ071>073-080-081-089-090-097-098-260000-
   Southwest Minnesota

CITY           SKY/WX    TMP DP  RH WIND       PRES   REMARKS
MONTEVIDEO     PTSUNNY   64  43  45 N17G31    30.01R
GRANITE FALLS  PTSUNNY   65  44  47 W21G28    30.01R
CANBY          SUNNY     64  41  44 NW18G29   30.03R
MARSHALL       SUNNY     62  44  51 NW22      30.01R
REDWOOD FALLS  MOSUNNY   62  45  53 NW12G21   29.98R
OLIVIA         CLOUDY    61  46  59 NW15      29.97R
PIPESTONE      SUNNY     63  37  39 NW16G22   30.06R
WINDOM         MOSUNNY   63  46  55 W13G21    30.02S
WORTHINGTON    MOSUNNY   62  44  51 NW18G32   30.06R
JACKSON        PTSUNNY   63  45  51 W13G21    30.04S
TRACY          PTSUNNY   65  43  45 NW17G30   30.03R
$$
MNZ065>067-074>077-082>085-091>093-260000-
   South Central Minnesota

CITY           SKY/WX    TMP DP  RH WIND       PRES   REMARKS
MANKATO        CLOUDY    60  51  72 W10       29.99R
ST JAMES       CLOUDY    63  48  59 W16       30.02R
FAIRMONT       CLOUDY    61  49  64 NW13G21   30.03R
GLENCOE        CLOUDY    61  53  72 W15G22    29.95R
FARIBAULT      CLOUDY    57  54  88 W9G16     29.97R
OWATONNA       PTSUNNY   57  54  88 W14       29.98R
WASECA         CLOUDY    55  52  88 W12G17    30.00R
ALBERT LEA     RAIN      57  54  88 NW12G21   30.00R
$$
MNZ078>079-086>088-094>096-260000-
   Southeast Minnesota

CITY           SKY/WX    TMP DP  RH WIND       PRES   REMARKS
ROCHESTER      LGT RAIN  58  56  93 W14G21    29.97R
RED WING       CLOUDY    63  54  72 NW6       29.91R
STANTON        CLOUDY    60  52  75 W13G25    29.94R
DODGE CENTER   RAIN      57  55  94 W9        29.97R
WINONA         CLOUDY    66  54  63 W7        29.92R
AUSTIN         CLOUDY    57  54  88 W12G18    29.98S
PRESTON        CLOUDY    60  51  72 W22       29.98R
$$
ABBREVIATIONS USED IN REMARKS
   TC - TEMPERATURES IN CELSIUS
  WCI - WIND CHILL INDEX
   HX - HEAT INDEX
  VSB - VISIBILITY
$$




USA.gov is the U.S. government's official web portal to all federal, state and local government web resources and services.